Location: Unspecified
(0.0000°N, 0.0000°E)
Time: 06:32:23
(UTC+02:00)

GPS 2-15 Rocket1 - Visible Passes

Search period start: 26 July 2016 00:00
Search period end: 05 August 2016 00:00
Orbit: 625 x 677 km, 19.8° (Epoch: 24 July)

Date Brightness Start Highest point End Pass type
(mag) Time Alt. Az. Time Alt. Az. Time Alt. Az.
26 Jul 4.6 07:11:46 13° SSW 07:15:05 26° SSE 07:18:59 10° ESE visible
26 Jul 3.3 21:07:42 10° WNW 21:12:39 69° SSW 21:15:18 27° SE visible
27 Jul 5.5 05:58:58 14° SE 05:58:58 14° SE 06:00:16 10° ESE visible
27 Jul 3.7 07:37:09 10° SW 07:41:39 48° SSE 07:46:08 10° E visible
27 Jul 4.1 21:34:36 10° W 21:39:10 37° SSW 21:40:08 33° S visible
28 Jul 4.4 06:23:49 29° SSE 06:23:54 29° SSE 06:27:56 10° E visible
28 Jul 5.1 22:02:01 10° WSW 22:04:59 21° SSW 22:04:59 21° SSW visible
29 Jul 3.4 06:48:41 33° SW 06:50:28 54° SSE 06:55:01 10° E visible
29 Jul 4.4 20:43:26 10° W 20:47:54 33° SSW 20:52:11 11° SE visible
30 Jul 5.7 05:35:53 15° ESE 05:35:53 15° ESE 05:36:53 10° E visible
30 Jul 3.1 07:13:32 18° WSW 07:16:58 77° NNW 07:21:37 10° ENE visible
30 Jul 5.1 21:10:56 10° WSW 21:14:33 20° SSW 21:17:02 14° SSE visible
31 Jul 4.3 06:00:44 39° E 06:00:44 39° E 06:03:52 10° E visible
31 Jul 4.0 07:39:06 10° W 07:43:29 39° NNW 07:47:50 10° NE visible
31 Jul 5.4 21:39:10 10° SW 21:41:20 13° SSW 21:41:52 12° S visible
01 Aug 3.0 06:25:35 68° NW 06:25:45 69° NNW 06:30:24 10° ENE visible
02 Aug 4.1 06:50:25 25° WNW 06:52:17 35° NNW 06:56:34 10° NE visible
02 Aug 5.5 20:48:18 10° SW 20:50:06 12° SSW 20:51:55 10° S visible
03 Aug 5.4 05:37:35 21° NE 05:37:35 21° NE 05:39:12 10° ENE visible
03 Aug 4.9 07:15:22 10° WNW 07:18:53 20° NNW 07:22:21 10° NNE visible
04 Aug 4.7 06:02:23 28° NNE 06:02:23 28° NNE 06:05:18 10° NE visible
04 Aug 5.5 07:43:37 10° NW 07:45:36 12° NNW 07:47:35 10° N visible
